Погода в Чердыни

Погода в Чердыни : погода сейчас, прогноз погоды и архив. Всё, что Вы хотите узнать о погоде в Чердыни!

Хотите узнать прогноз погоды в Чердыни? Тогда Вам сюда: Погода в Чердыни

Поиск расширенной информации на нашем сайте:

Другие новости

Новости СМИ2

Главная страница сайта

Новости сайта

03.07.2017

Напоминаем, что на нашем специализированном сайте Метеоцентр.Азия вы можете получить высокодетализированные автоматические прогнозы погоды по пунктам России, СНГ и мира в авиационном формате (включающие направление и скорость ветра, видимость, явления погоды, количество и форму облачности, нижнюю и верхнюю границу облачности).


Погода в Чердыни - сегодня

Время (UTC), дата Ветер
(°,м/с) 
Видим.   Явления Облачность Т
(°С)
Тd
(°С)
f(%) Тe
(°С)
Pmin
(гПа)
dP
(гПа)
Po
(мм)
O2
(г/м3)
Тmin Tmax R s Состояние
почвы
00 19.11.17 220 (ЮЗ) 6-10{10}  20000 м  в посл. час ливневой снег  10/8 600 м кучево-дожд., средняя 
[Cb cap|Ac As]
-0.3 -1.2 94 -4  1013.4  1.2  741  299           
03 19.11.17 220 (ЮЗ) 5{11}  20000 м  слаб. ливневой снег  10/10 300 м кучево-дожд. 
[Cb cap]
-0.1 -1 94 -3  1015  1.6  742  299  -2.1    11  равномерный
мокрый или
старый снег
100% 
06 19.11.17 210 (ЮЗ) 20000 м  {ливн. осадки}  10/10 300 м кучево-дожд. 
[Cb cap]
-0.1 -1.3 92 -3  1016.7  1.6  743  300           
09 19.11.17 180 (Ю) 4000 м  ливневой снег  10/10 600 м кучево-дожд. 
[Cb cap]
-0.3 -1.8 90 -2  1018  1.3  744  300           
12 19.11.17 180 (Ю) 10 км  слаб. снег{ливн. осадки}  10/10 300 м 
[Frnb|Ns]
-0.7 -2.3 89 -3  1018.9  0.8  745  301           
15 19.11.17 180 (Ю) 20000 м  {снег}  10/10 300 м 
[Sc]
-1.1 -2.3 92 -4  1019.2  0.3  745  302    +0  0.1     
18 19.11.17 200 (Ю) 20000 м  в посл. час снег  10/10 300 м 
[Frnb|Ns]
-0.6 -1.5 94 -3  1018.8  0.3  745  301           
21 19.11.17 190 (Ю) 10 км  слаб. снег  10/10 300 м 
[Frnb|Ns]
-0.5 -1.4 94 -3  1019.2  0.4  745  301           
00 20.11.17 190 (Ю) 20000 м  слаб. снег  10/10 300 м 
[Frnb|Ns]
-0.3 -1.2 94 -2  1019  0.1  745  301           
03 20.11.17 180 (Ю) 20000 м  слаб. снег  10/10 300 м 
[Frnb|Ns]
-0.7 -1.7 93 -3  1019  0.1  745  301  -1.1    0.2  10  равномерный
сухой снег
100% 
06 20.11.17 160 (Ю) 20000 м  {снег}  10/9 300 м средняя 
[Sc|Ac As]
-1 -2.3 91 -4  1019.1  0.1  745  301  -1.1         
09 20.11.17 140 (ЮВ) 20000 м    10/10 300 м 
[Sc]
-0.9 -2 92 -3  1018.4  -0.7  744  301           
12 20.11.17 120 (ЮВ) 1000 м  ливневой снег  10/10 300 м кучево-дожд. 
[Cb cap]
-1.3 -1.7 97 -3  1016.8  -1.6  743  301           
15 20.11.17 150 (ЮВ) 2000 м  снег{ливн. осадки}  10/10 300 м 
[Frnb|Ns]
-0.9 -1.3 97 -3  1015.4  -1.3  742  300    -0.7     
18 20.11.17 180 (Ю) 4000 м  снег{ливн. осадки}  10/10 300 м 
[Ns]
-0 -0.4 97 -2  1015.1  -0.2  742  299           
21 20.11.17 190 (Ю) 4000 м  снег  10/10 300 м 
[Ns]
+0.1 -0.2 98 -2  1016.2  743  299           
00 21.11.17 190 (Ю) 4000 м  слаб. ливневой снег  10/10 600 м кучево-дожд. 
[Cb cap]
+0.1 -0.1 99 -1  1017.4  1.2  744  300           
03 21.11.17 190 (Ю) 10 км  слаб. снег{ливн. осадки}  10/10 300 м 
[Ns]
+0.1 -0.1 99 -2  1018.1  0.7  744  300  -0.9    13  равномерный
мокрый или
старый снег
100% 
06 21.11.17 130 (ЮВ) 0500 м  слаб. снег{ливн. осадки}  ?/?  
+0.2 -0.1 98 +1  1018.6  0.5  745  300           
09 21.11.17 130 (ЮВ) 0500 м  слаб. снег{туман}  ?/?  
-0 -0.3 98 -1  1018.2  -0.4  744  300           
12 21.11.17 100 (В) 0050 м  туман{снег, морось}  ?/?  
+0.1 -0.2 98 -2  1016.3  -1.8  743  299           
15 21.11.17 130 (ЮВ) 4000 м  дымка{туман}  10/10 300 м 
[Frnb|Ns]
+0.1 -0.1 99 -1  1015.4  -0.8  742  299    +0.3     
18 21.11.17 110 (В) 1000 м  дымка{туман}  10/10 300 м 
[Sc]
-0.4 -0.6 99 -2  1013.6  -1.8  741  299           
21 21.11.17 120 (ЮВ) 10 км    ясно 
-1.7 -1.8 99 -3  1013.7  741  301           
00 22.11.17 130 (ЮВ) 20000 м    ясно 
-2.2 -2.8 96 -4  1013.2  -0.6  740  301           
Время (UTC), дата Ветер
(°,м/с) 
Видим.   Явления Облачность Т
(°С)
Тd
(°С)
f(%) Тe
(°С)
Pmin
(гПа)
dP
(гПа)
Po
(мм)
O2
(г/м3)
Тmin Tmax R s Состояние
почвы

Для получения пояснительной информации подведите курсор к названию столбца.

ПОГОДА в Чердыни - архив

Всё, что Вы хотите узнать о погоде в Чердыни - удобно и подробно!

Выберите нужную дату (начиная с 1 января 2015* года) и нажмите кнопку "Найти".
Будут отображены архивные сводки погоды по пункту Чердынь, начиная с указанной даты.


Отображать данные в формате CSV (для использования в таблицах Excel)


Внимание! Наш архив погоды предназначен исключительно для личного некоммерческого использования в познавательных целях. Если Вам необходимы официальные справки о состоянии погоды (для производственных, юридических, коммерческих и т.п. целей), обращайтесь в органы Росгидромета.

*Примечание: данная дата относится к архиву по метеостанциям СССР (Россия, СНГ, Балтия).
Архив по метеостанциям Зарубежной Европы и Азии (кроме Китая) хранится 10 дней, по другим регионам земного шара (Китай, Африка, Америка, Австралия, Океания) - 1 день.

Чердынь - район местоположения метеостанции


Название, широта, долгота, высота метеостанции:
Чердынь 60.4°ш. 56.5°д. 207 м над ур. моря [Российская Федерация]

Дополнительная информация

В oтличие oт бoльшинства пoгoдных сайтoв мы публикуем пoдрoбную метеoинфoрмацию в детальнoм прoфессиoнальнoм фoрмате.

Характеристики температуры и влажнoсти вoздуха измеряются на высoте 2 м в тени вдали oт зданий и деревьев.
Скoрoсть ветра измеряется на высoте 10 м (на урoвне рoста челoвека скoрoсть ветра ниже в 1.5-2 раза). Если метеoстанция нахoдится в гoрoде или в лесу, тo скoрoсть ветра занижена на 2-4 м/с пo сравнению с oткрытым местoм. Скoрoсть ветра над акватoриями крупных рек и oзёр, а также на вершинах хoлмoв на 2-5 м/с выше, чем в oбычных услoвиях.
Атмoсфернoе давление в разных тoчках местнoсти мoжет значительнo oтличаться oт давления на метеoстанции, в зависимoсти oт услoвий рельефа (при пoдъёме на 10 м давление пoнижается примернo на 1 мм рт.ст.).